When you browse on this site, cookies collect data to enhance your experience and personalize the content and advertising you see.
Visit our Privacy Policy to learn more. By continuing to use the site, you agree to this use of cookies and data.
  • In Romania
  • List of Countries
  • For 7 days
  • Water Temperature
  • Weather Map
  • Weather Widgets
  • user-avatar
    Login

    Hourly Weather Mochudi

    Today, 2 June, Tuesday

    Time Temperature Precipitation Wind Pressure Humidity
    00:00 +14°C° 0 mm 0 mps 685 mmHg 36%
    01:00 +15°C° 0 mm 1 mps 685 mmHg 37%
    02:00 +14°C° 0 mm 1 mps 685 mmHg 38%
    03:00 +14°C° 0 mm 1 mps 685 mmHg 40%
    04:00 +13°C° 0 mm 1 mps 685 mmHg 41%
    05:00 +12°C° 0 mm 1 mps 685 mmHg 43%
    06:00 +13°C° 0 mm 1 mps 685 mmHg 42%
    07:00 +13°C° 0 mm 1 mps 686 mmHg 41%
    08:00 +14°C° 0 mm 1 mps 687 mmHg 47%
    09:00 +18°C° 0 mm 1 mps 687 mmHg 44%
    10:00 +21°C° 0 mm 1 mps 687 mmHg 41%
    11:00 +23°C° 0 mm 2 mps 687 mmHg 38%
    12:00 +24°C° 0 mm 2 mps 687 mmHg 34%
    13:00 +26°C° 0 mm 2 mps 686 mmHg 29%
    14:00 +27°C° 0 mm 2 mps 686 mmHg 26%
    15:00 +26°C° 0 mm 2 mps 685 mmHg 27%
    16:00 +25°C° 0 mm 2 mps 685 mmHg 28%
    17:00 +24°C° 0 mm 2 mps 685 mmHg 28%
    18:00 +22°C° 0 mm 1 mps 685 mmHg 33%
    19:00 +20°C° 0 mm 1 mps 685 mmHg 38%
    20:00 +17°C° 0 mm 0 mps 685 mmHg 42%
    21:00 +16°C° 0 mm 0 mps 685 mmHg 43%
    22:00 +16°C° 0 mm 0 mps 685 mmHg 45%
    23:00 +15°C° 0 mm 0 mps 685 mmHg 46%

    Tomorrow, 3 June, Wednesday

    Time Temperature Precipitation Wind Pressure Humidity
    00:00 +16°C° 0 mm 1 mps 684 mmHg 48%
    01:00 +15°C° 0 mm 1 mps 684 mmHg 50%
    02:00 +14°C° 0 mm 1 mps 684 mmHg 52%
    03:00 +14°C° 0 mm 1 mps 684 mmHg 55%
    04:00 +13°C° 0 mm 1 mps 684 mmHg 58%
    05:00 +12°C° 0 mm 1 mps 684 mmHg 60%
    06:00 +13°C° 0 mm 1 mps 684 mmHg 59%
    07:00 +13°C° 0 mm 1 mps 684 mmHg 57%
    08:00 +14°C° 0 mm 1 mps 685 mmHg 55%
    09:00 +18°C° 0 mm 1 mps 685 mmHg 49%
    10:00 +20°C° 0 mm 1 mps 686 mmHg 42%
    11:00 +23°C° 0 mm 1 mps 686 mmHg 35%
    12:00 +24°C° 0 mm 1 mps 685 mmHg 32%
    13:00 +25°C° 0 mm 1 mps 685 mmHg 28%
    14:00 +26°C° 0 mm 2 mps 684 mmHg 24%
    15:00 +26°C° 0 mm 1 mps 684 mmHg 25%
    16:00 +25°C° 0 mm 1 mps 683 mmHg 26%
    17:00 +24°C° 0 mm 1 mps 683 mmHg 26%
    18:00 +22°C° 0 mm 1 mps 683 mmHg 30%
    19:00 +20°C° 0 mm 1 mps 683 mmHg 34%
    20:00 +18°C° 0 mm 1 mps 683 mmHg 38%
    21:00 +16°C° 0 mm 0 mps 683 mmHg 40%
    22:00 +15°C° 0 mm 0 mps 683 mmHg 41%
    23:00 +14°C° 0 mm 0 mps 683 mmHg 43%

    Day after tomorrow, 4 June, Thursday

    Time Temperature Precipitation Wind Pressure Humidity
    00:00 +14°C° 0 mm 0 mps 682 mmHg 44%
    01:00 +14°C° 0 mm 0 mps 682 mmHg 44%
    02:00 +13°C° 0 mm 0 mps 682 mmHg 45%
    03:00 +14°C° 0 mm 1 mps 682 mmHg 47%
    04:00 +13°C° 0 mm 1 mps 682 mmHg 49%
    05:00 +13°C° 0 mm 1 mps 682 mmHg 51%
    06:00 +13°C° 0 mm 1 mps 683 mmHg 50%
    07:00 +14°C° 0 mm 1 mps 683 mmHg 49%
    08:00 +14°C° 0 mm 1 mps 684 mmHg 47%
    09:00 +17°C° 0 mm 2 mps 684 mmHg 41%
    10:00 +20°C° 0 mm 2 mps 685 mmHg 35%
    11:00 +22°C° 0 mm 3 mps 685 mmHg 29%
    12:00 +24°C° 0 mm 3 mps 685 mmHg 26%
    13:00 +25°C° 0 mm 3 mps 684 mmHg 24%
    14:00 +26°C° 0 mm 3 mps 684 mmHg 21%
    15:00 +26°C° 0 mm 3 mps 683 mmHg 22%
    16:00 +25°C° 0 mm 2 mps 683 mmHg 23%
    17:00 +24°C° 0 mm 2 mps 683 mmHg 24%
    18:00 +21°C° 0 mm 2 mps 683 mmHg 27%
    19:00 +19°C° 0 mm 2 mps 683 mmHg 31%
    20:00 +18°C° 0 mm 1 mps 683 mmHg 34%
    21:00 +18°C° 0 mm 1 mps 683 mmHg 37%
    22:00 +16°C° 0 mm 2 mps 684 mmHg 40%
    23:00 +15°C° 0 mm 2 mps 684 mmHg 42%

    5 June, Friday

    Time Temperature Precipitation Wind Pressure Humidity
    00:00 +14°C° 0 mm 2 mps 684 mmHg 46%
    01:00 +13°C° 0 mm 2 mps 683 mmHg 50%
    02:00 +12°C° 0 mm 2 mps 683 mmHg 53%
    03:00 +12°C° 0 mm 1 mps 683 mmHg 58%
    04:00 +11°C° 0 mm 1 mps 683 mmHg 62%
    05:00 +10°C° 0 mm 1 mps 683 mmHg 67%
    06:00 +11°C° 0 mm 1 mps 684 mmHg 67%
    07:00 +11°C° 0 mm 1 mps 684 mmHg 67%
    08:00 +12°C° 0 mm 1 mps 685 mmHg 67%
    09:00 +14°C° 0 mm 1 mps 685 mmHg 61%
    10:00 +17°C° 0 mm 2 mps 686 mmHg 54%
    11:00 +19°C° 0 mm 2 mps 686 mmHg 48%
    12:00 +21°C° 0 mm 2 mps 686 mmHg 42%
    13:00 +23°C° 0 mm 2 mps 685 mmHg 36%
    14:00 +25°C° 0 mm 2 mps 685 mmHg 29%
    15:00 +24°C° 0 mm 1 mps 685 mmHg 30%
    16:00 +23°C° 0 mm 1 mps 685 mmHg 30%
    17:00 +23°C° 0 mm 1 mps 685 mmHg 30%
    18:00 +21°C° 0 mm 1 mps 684 mmHg 35%
    19:00 +19°C° 0 mm 1 mps 684 mmHg 39%
    20:00 +16°C° 0 mm 1 mps 684 mmHg 44%
    21:00 +16°C° 0 mm 1 mps 684 mmHg 45%
    22:00 +15°C° 0 mm 1 mps 685 mmHg 47%
    23:00 +15°C° 0 mm 1 mps 685 mmHg 48%

    6 June, Saturday

    Time Temperature Precipitation Wind Pressure Humidity
    00:00 +14°C° 0 mm 1 mps 684 mmHg 49%
    01:00 +14°C° 0 mm 1 mps 684 mmHg 51%
    02:00 +13°C° 0 mm 1 mps 684 mmHg 52%
    03:00 +13°C° 0 mm 1 mps 684 mmHg 55%
    04:00 +12°C° 0 mm 1 mps 684 mmHg 57%
    05:00 +12°C° 0 mm 1 mps 685 mmHg 59%
    06:00 +12°C° 0 mm 1 mps 685 mmHg 60%
    07:00 +12°C° 0 mm 1 mps 685 mmHg 62%
    08:00 +12°C° 0 mm 1 mps 686 mmHg 63%
    09:00 +15°C° 0 mm 1 mps 686 mmHg 55%
    10:00 +18°C° 0 mm 2 mps 687 mmHg 46%
    11:00 +20°C° 0 mm 2 mps 687 mmHg 37%
    12:00 +23°C° 0 mm 2 mps 687 mmHg 33%
    13:00 +24°C° 0 mm 2 mps 686 mmHg 29%
    14:00 +25°C° 0 mm 2 mps 686 mmHg 25%
    15:00 +25°C° 0 mm 2 mps 685 mmHg 25%
    16:00 +24°C° 0 mm 2 mps 685 mmHg 26%
    17:00 +23°C° 0 mm 1 mps 685 mmHg 27%
    18:00 +21°C° 0 mm 1 mps 685 mmHg 32%
    19:00 +19°C° 0 mm 1 mps 685 mmHg 37%
    20:00 +16°C° 0 mm 1 mps 685 mmHg 41%
    21:00 +16°C° 0 mm 1 mps 685 mmHg 44%
    22:00 +15°C° 0 mm 1 mps 685 mmHg 46%
    23:00 +14°C° 0 mm 1 mps 685 mmHg 48%

    7 June, Sunday

    Time Temperature Precipitation Wind Pressure Humidity
    00:00 +14°C° 0 mm 1 mps 685 mmHg 50%
    01:00 +13°C° 0 mm 1 mps 685 mmHg 51%
    02:00 +13°C° 0 mm 1 mps 685 mmHg 53%
    03:00 +12°C° 0 mm 1 mps 685 mmHg 57%
    04:00 +11°C° 0 mm 1 mps 685 mmHg 61%
    05:00 +11°C° 0 mm 1 mps 684 mmHg 66%
    06:00 +11°C° 0 mm 1 mps 685 mmHg 65%
    07:00 +12°C° 0 mm 1 mps 686 mmHg 64%
    08:00 +12°C° 0 mm 1 mps 686 mmHg 63%
    09:00 +15°C° 0 mm 1 mps 686 mmHg 56%
    10:00 +17°C° 0 mm 2 mps 687 mmHg 49%
    11:00 +20°C° 0 mm 2 mps 687 mmHg 43%
    12:00 +21°C° 0 mm 2 mps 687 mmHg 38%
    13:00 +23°C° 0 mm 2 mps 686 mmHg 33%
    14:00 +25°C° 0 mm 2 mps 686 mmHg 27%
    15:00 +24°C° 0 mm 2 mps 685 mmHg 28%
    16:00 +23°C° 0 mm 2 mps 685 mmHg 28%
    17:00 +23°C° 0 mm 1 mps 684 mmHg 29%
    18:00 +21°C° 0 mm 1 mps 684 mmHg 33%
    19:00 +19°C° 0 mm 1 mps 684 mmHg 38%
    20:00 +16°C° 0 mm 1 mps 684 mmHg 43%
    21:00 +15°C° 0 mm 1 mps 684 mmHg 45%
    22:00 +15°C° 0 mm 1 mps 684 mmHg 47%
    23:00 +13°C° 0 mm 0 mps 685 mmHg 49%
    Show more